sat.trackr.live / text

‹ back to catalog

STARLINK-3664

NORAD 51984 · 2022-025AE

PAYLOAD ACTIVE UNKNOWN

§ Identity

Operator
Country
US
Launch date
2022-03-09
Launch site
AFETR
Launch vehicle
Mass (kg)
RCS (m²)

Purposes: comms

External: N2YO · Heavens-Above · Gunter

§ Orbital elements

Epoch: 2026-05-25T03:45:38.320992Z

Period
95.44 min
Inclination
53.2153°
Eccentricity
0.0001443
Mean motion
15.08841324 rev/d
Perigee alt
538.7 km
Apogee alt
540.7 km
Semi-major
6,917.9 km
B*
3.1775e-5
RAAN
55.9314°
Arg perigee
91.7403°
Mean anomaly
268.3755°
Rev number
23,260

§ Raw data

STARLINK-36641 51984U 22025AE  26145.15669353  .00000218  00000+0  31775-4 0  99912 51984  53.2153  55.9314 0001443  91.7403 268.3755 15.08841324232606

JSON: /api/v1/satellites/51984 · /tle

For live sub-satellite position, see the globe view (requires WebGL).

§ Visibility from observer

Set your observer location to see the next 7 days of passes ≥ 10°. The values pass through the URL so the page stays shareable.

No JS? Fill the form by hand. The geolocation button needs JavaScript.